SCP
1 1 1 0 0 0 0 0 0 0 0 0 0 0 1 1 1 1 1 1 1 1 1 1 1 0 0 0 0 0 0 0 0 0 0 0 0 0 0 0 0 0 0 0
1 1 0 0 0 0 0 0 0 0 0 0 0 0 0 1 1 1 1 1 1 1 1 1 1 0 0 0 0 0 0 0 0 0 0 0 0 0 0 0 0 0 0 0
0 0 0 0 0 0 0 0 0 0 0 0 0 0 0 1 1 1 1 1 1 1 2 1 1 0 0 0 0 0 0 0 0 0 0 0 0 0 0 0 0 0 0 0
0 0 0 0 0 0 0 0 0 0 0 0 0 0 0 0 1 1 1 1 1 1 2 1 1 0 0 0 0 0 0 0 0 0 0 0 0 0 0 0 0 0 0 0
0 0 0 0 0 0 0 0 0 0 0 0 0 0 0 0 0 0 0 1 1 1 2 1 1 1 0 0 0 0 0 0 0 0 0 0 0 0 0 0 0 0 0 0
0 0 0 0 0 0 0 0 0 0 0 0 0 0 0 0 0 0 0 0 1 1 1 1 1 1 0 0 0 0 0 0 0 0 0 0 0 0 0 0 0 0 0 0
0 0 0 0 0 0 0 0 0 0 0 0 0 0 0 0 0 0 0 0 0 1 1 1 1 1 1 0 0 0 0 0 0 0 0 0 0 0 0 0 0 0 0 0
0 0 0 0 0 0 0 0 0 0 0 0 0 0 0 0 0 0 0 0 0 1 1 1 1 1 1 1 1 0 0 0 0 0 0 0 0 0 0 0 0 0 0 0
0 0 0 0 0 0 0 0 0 0 0 0 0 0 0 0 0 0 0 0 0 1 1 1 1 1 1 1 1 0 0 0 0 0 0 0 0 0 0 0 0 0 0 0
0 0 0 0 0 0 0 0 0 0 0 0 0 0 0 0 0 0 0 0 0 1 1 1 1 1 1 1 1 1 0 0 0 0 0 0 0 0 0 0 0 0 0 0
0 0 0 0 0 0 0 0 0 0 0 0 0 0 0 0 0 0 0 0 0 0 1 0 1 1 1 1 1 1 0 0 0 0 0 0 0 0 0 0 0 0 0 0
0 0 0 0 0 0 0 0 0 0 0 0 0 0 0 0 0 0 0 0 0 0 0 0 0 1 1 1 1 0 0 0 0 0 0 0 0 0 0 0 0 0 0 0
0 0 0 0 0 0 0 0 0 0 0 0 0 0 0 0 0 0 0 0 0 0 0 0 0 0 1 1 0 0 0 0 0 0 0 0 0 0 0 0 0 0 0 0
0 0 0 0 0 0 0 0 0 0 0 0 0 0 0 0 0 0 0 0 0 0 0 0 0 0 0 0 0 0 0 0 0 0 0 0 0 0 0 0 0 0 0 0
0 0 0 0 0 0 0 0 0 0 0 0 0 0 0 0 0 0 0 0 0 0 0 0 0 0 0 0 0 0 0 0 0 0 0 0 0 0 0 0 0 0 0 0
0 0 0 0 0 0 0 0 0 0 0 0 0 0 0 0 0 0 0 0 0 0 0 0 0 0 0 0 0 0 0 0 0 0 0 0 0 0 0 0 0 0 0 0
0 0 0 0 0 0 0 0 0 0 0 0 0 0 0 0 0 0 0 0 0 0 0 0 0 0 0 0 0 0 0 0 0 0 0 0 0 0 0 0 0 0 0 0
0 0 0 0 0 0 0 0 0 0 0 0 0 0 0 0 0 0 0 0 0 0 0 0 0 0 0 0 0 0 0 0 0 0 0 0 0 0 0 0 0 0 0 0
0 0 0 0 0 0 0 0 0 0 0 0 0 0 0 0 0 0 0 0 0 0 0 0 0 0 0 0 0 0 0 0 0 0 0 0 0 0 0 0 0 0 0 0
0 0 0 0 0 0 0 0 0 0 0 0 0 0 0 0 0 0 0 0 0 0 0 0 0 0 0 0 0 0 0 0 0 0 0 0 0 0 0 0 0 0 0 0
0 0 0 0 0 0 0 0 0 0 0 0 0 0 0 0 0 0 0 0 0 0 0 0 0 0 0 0 0 0 0 0 0 0 0 0 0 0 0 0 0 0 0 0
0 0 0 0 0 0 0 0 0 0 0 0 0 0 0 0 0 0 0 0 0 0 0 0 0 0 0 0 0 0 0 0 0 0 0 0 0 0 0 0 0 0 0 0
0 0 0 0 0 0 0 0 0 0 0 0 0 0 0 0 0 0 0 0 0 0 0 0 0 0 0 0 0 0 0 0 0 0 0 0 0 0 0 0 0 0 0 0
0 0 0 0 0 0 0 0 0 0 0 0 0 0 0 0 0 0 0 0 0 0 0 0 0 0 0 0 0 0 0 0 0 0 0 0 0 0 0 0 0 0 0 0
0 0 0 0 0 0 0 0 0 0 0 0 0 0 0 0 0 0 0 0 0 0 0 0 0 0 0 0 0 0 0 0 0 0 0 0 0 0 0 0 0 0 0 0
0 0 0 0 0 0 0 0 0 0 0 0 0 0 0 0 0 0 0 0 0 0 0 0 0 0 0 0 0 0 0 0 0 0 0 0 0 0 0 0 0 0 0 0
Wind_Speed
9 7 8 9 9 8 4 4 1 1 3 6 7 8 7 8 9 8 8 9 9 9 10 9 8 7 6 5 4 6 4 4 3 2 1 1 1 1 1 1 2 3 3 4
8 10 11 10 9 7 5 5 3 1 4 5 8 10 9 8 10 10 9 8 9 9 10 10 9 7 6 5 4 5 5 4 4 2 0 0 0 1 1 0 1 2 3 3
9 8 10 9 7 6 5 3 3 3 5 8 9 9 8 5 5 5 5 5 5 8 11 13 10 8 6 6 5 4 4 5 5 3 1 2 1 1 1 1 1 1 1 2
6 6 8 7 6 6 2 2 3 4 5 5 7 6 6 6 7 7 6 5 4 5 8 10 9 9 8 6 5 5 5 4 4 3 2 1 1 1 1 1 1 1 1 1
4 4 6 6 5 3 1 3 6 7 7 8 9 8 3 5 6 7 7 7 5 6 8 9 9 8 8 7 5 4 5 5 4 3 2 1 1 2 1 2 2 2 1 1
3 4 3 1 2 2 3 6 8 8 7 8 7 5 2 2 3 4 5 6 7 7 8 9 9 8 7 7 6 5 5 5 4 2 2 2 1 1 2 2 1 2 1 1
4 5 4 2 3 5 6 5 3 3 3 4 4 3 1 6 6 3 3 5 7 8 9 9 9 8 8 8 7 5 6 5 4 3 3 2 2 2 1 1 1 1 1 1
4 6 7 6 6 4 7 7 3 2 4 5 5 3 4 9 7 4 2 2 4 7 8 9 10 9 8 8 8 6 6 6 5 4 3 2 2 1 0 1 1 1 1 1
2 2 6 5 5 5 4 6 6 5 8 6 4 2 4 7 6 4 3 3 4 5 7 8 9 9 9 9 8 7 7 6 6 4 3 3 1 1 0 1 1 1 1 1
3 2 3 4 3 6 7 6 5 4 5 5 5 4 2 5 4 4 4 5 5 6 7 8 9 9 9 8 8 8 7 7 6 5 4 3 2 1 1 1 1 2 2 1
6 2 4 6 7 7 7 7 6 4 5 5 5 3 3 4 3 2 2 4 6 6 7 8 8 8 8 8 8 7 7 6 6 5 4 4 3 2 2 2 1 2 2 2
4 4 3 6 5 3 5 6 6 5 5 6 6 3 2 4 3 2 2 3 5 6 7 8 8 8 8 8 8 8 8 7 6 5 4 4 4 4 3 3 3 3 2 2
8 5 3 2 1 3 6 7 7 6 7 7 7 4 1 2 3 3 3 4 4 6 7 8 8 8 8 8 8 8 8 7 7 6 4 4 5 4 3 2 2 2 2 2
5 8 6 5 5 5 6 7 7 7 7 9 10 10 6 4 2 2 3 5 6 7 7 8 8 8 8 8 8 7 7 7 7 6 5 5 4 4 3 2 1 1 1 2
6 9 10 9 9 9 9 10 9 10 11 12 12 11 9 8 6 4 2 3 5 6 8 8 8 8 9 8 8 8 7 8 7 7 6 5 4 3 3 2 2 1 1 2
6 9 12 12 12 12 12 12 12 12 12 11 11 9 8 7 6 4 3 2 3 5 7 9 10 9 10 10 9 8 8 8 8 7 7 5 4 4 3 2 2 1 1 2
8 10 12 12 13 13 12 9 8 7 7 8 8 7 7 7 6 5 3 2 2 4 5 7 9 9 10 11 10 9 9 8 7 7 7 6 5 4 4 3 2 2 2 2
12 11 8 10 12 14 7 4 4 4 6 6 6 6 7 8 6 3 5 4 2 2 3 5 7 8 9 9 9 9 9 8 8 7 7 6 6 5 4 3 2 2 2 1
9 9 8 9 11 11 7 5 5 5 5 7 7 8 9 9 7 3 7 5 3 2 2 3 5 6 8 8 9 10 10 9 8 7 7 7 7 6 5 4 3 2 1 0
5 6 7 8 11 11 6 7 6 5 3 8 9 9 10 10 6 7 10 7 5 2 1 2 3 5 6 7 8 9 9 9 8 8 7 7 7 6 5 5 4 3 3 2
5 6 7 9 11 7 6 7 5 3 6 10 10 10 10 9 8 9 10 9 6 3 1 1 2 3 4 6 7 8 8 9 8 8 7 6 6 6 5 4 3 3 3 3
10 7 8 8 9 4 8 6 6 7 9 10 10 11 10 10 10 10 9 8 7 5 2 1 1 2 3 5 6 7 7 7 8 8 7 7 6 6 6 5 3 3 3 3
7 6 6 6 5 5 6 6 7 9 10 10 10 11 11 11 11 11 9 7 6 5 4 2 2 3 3 4 5 6 6 8 9 9 8 7 7 5 5 5 4 3 2 2
10 11 10 10 8 8 8 8 7 8 10 10 10 11 12 12 13 12 9 7 6 5 5 3 3 4 4 5 5 6 7 8 9 9 8 7 7 6 5 4 3 3 2 2
12 12 12 14 11 10 8 10 11 11 12 13 12 12 12 13 12 12 11 9 6 5 5 4 4 5 5 5 6 6 8 9 9 9 8 7 6 7 6 4 3 3 3 3
12 12 10 10 10 11 11 12 14 13 13 13 13 13 12 12 12 12 11 9 7 6 6 6 6 5 5 6 6 7 8 9 10 9 9 7 6 6 6 7 5 7 6 8
Wind_Direction
177 188 209 216 213 231 272 285 288 290 263 252 258 264 253 209 198 206 206 202 196 183 164 147 140 137 147 147 134 126 128 118 104 72 21 25 25 343 50 40 42 346 344 357
177 209 214 214 217 233 263 284 309 305 275 278 277 274 261 228 202 202 213 207 196 172 155 141 145 147 161 148 139 137 132 118 110 114 17 189 63 300 110 41 62 353 355 3
188 211 212 219 216 231 251 289 297 301 285 277 277 273 260 224 201 187 222 225 202 173 161 154 159 153 157 152 148 144 132 134 125 131 82 18 355 307 41 26 62 314 357 28
206 211 201 206 223 240 251 326 303 299 292 292 286 289 268 189 175 178 199 214 207 164 148 148 152 153 159 152 148 152 138 126 117 115 89 333 332 20 22 352 25 325 58 44
193 200 203 205 211 214 271 281 278 274 281 283 276 276 282 146 171 174 179 189 187 160 148 148 151 152 155 146 143 143 130 123 115 112 135 277 13 359 360 355 3 349 37 38
165 182 210 193 169 162 218 258 262 258 264 273 272 273 299 114 105 130 159 173 172 160 149 148 143 142 141 133 137 136 130 125 130 156 167 166 135 311 311 322 349 332 326 41
173 180 174 181 209 192 224 259 302 301 257 282 304 277 255 91 87 87 126 159 163 156 150 148 145 149 143 144 149 154 148 147 156 179 189 182 174 259 278 323 337 320 344 41
191 178 178 195 232 223 220 239 246 300 303 299 284 256 114 105 100 93 85 109 143 148 151 153 152 153 152 157 162 169 162 162 167 188 191 190 185 218 316 356 326 331 352 44
310 138 155 179 239 273 254 244 264 272 284 294 299 323 112 120 129 141 163 163 167 160 153 154 154 158 160 164 169 175 169 171 175 187 193 196 187 138 65 307 298 332 330 9
318 129 185 161 244 252 280 304 297 287 305 306 313 326 69 111 112 140 172 179 180 165 161 160 158 163 166 168 171 175 176 179 175 183 198 174 174 176 184 266 356 345 330 348
312 252 187 186 217 233 220 246 262 279 281 296 312 323 37 86 94 130 183 181 175 167 166 162 159 164 165 165 168 173 179 183 177 183 186 172 178 192 213 205 209 239 262 270
320 308 256 223 211 253 277 272 279 287 297 300 297 299 91 116 133 166 188 176 170 165 165 162 161 163 166 172 175 178 182 182 175 179 179 181 181 191 215 208 207 225 235 250
341 304 307 314 256 224 249 255 267 282 286 282 284 288 190 166 176 184 189 178 170 166 167 165 163 169 173 177 180 181 180 176 168 173 184 191 196 197 200 206 202 232 248 255
298 286 287 277 282 277 268 266 266 269 273 278 280 290 298 306 303 245 197 192 180 174 174 172 169 174 175 176 181 184 179 172 170 171 185 203 206 181 178 181 191 258 282 297
276 285 295 295 290 286 284 280 271 266 270 277 288 296 306 314 315 305 245 202 189 180 180 179 177 181 178 180 183 185 178 175 175 171 183 197 200 169 164 165 201 243 277 286
284 289 296 293 291 287 281 275 269 267 269 275 284 292 309 314 313 304 292 247 209 195 192 187 184 186 184 185 187 184 178 178 176 174 179 183 182 163 165 178 196 209 251 293
286 288 294 294 299 293 282 288 290 300 310 307 305 319 335 326 315 313 318 295 244 217 201 193 189 190 189 189 186 182 178 175 177 175 172 168 169 164 170 191 191 198 229 242
267 278 286 289 292 283 288 315 325 312 318 327 329 338 337 327 319 345 359 342 306 268 219 198 192 187 188 189 178 173 169 175 179 172 168 163 165 168 171 182 185 205 238 210
251 265 273 277 281 284 298 337 343 324 338 348 345 354 353 342 326 5 3 347 323 276 249 204 195 187 188 185 176 171 173 176 173 170 169 164 164 166 171 180 186 191 203 208
248 259 264 272 280 286 329 358 350 315 325 12 14 10 358 352 343 345 350 344 337 335 286 206 196 188 184 177 169 172 173 174 173 168 167 161 159 162 168 174 177 178 177 188
270 258 254 266 274 283 357 0 345 326 10 14 13 9 2 354 345 341 346 347 342 341 328 199 191 189 182 170 166 176 176 177 166 157 156 156 155 157 159 163 170 171 168 181
298 295 287 283 278 304 28 14 19 4 358 2 4 1 354 345 338 338 340 338 334 336 326 258 210 195 178 170 171 179 178 164 150 149 154 157 155 160 156 153 163 167 171 187
292 298 305 304 316 3 19 19 15 1 350 354 353 349 344 337 333 331 329 327 324 322 311 279 229 205 197 188 184 181 168 154 147 150 155 156 152 150 148 154 164 175 187 187
302 322 312 304 305 327 339 352 359 354 344 339 342 342 338 333 329 327 323 320 317 313 306 281 244 215 212 203 194 178 162 157 153 157 159 161 160 157 149 144 151 152 162 168
307 308 300 295 307 317 334 350 349 347 340 333 334 334 331 327 324 324 320 317 313 307 298 287 261 235 222 208 197 180 169 166 166 166 167 170 165 154 141 119 90 106 78 90
279 286 288 296 318 318 327 341 342 337 333 331 330 327 325 323 321 321 318 316 311 304 298 286 273 253 236 219 206 186 177 176 176 176 176 171 159 150 143 133 106 69 99 96